Location: Anjeux
(47.8815°N, 6.2076°E)
Time: 17:59:55
(UTC+00:00)

Cosmos 614 Rocket - Pass Details

Date: 05 March 2021
Orbit: 734 x 763 km, 74.1° (Epoch: 15 April)

Event Time Altitude Azimuth Distance (km) Brightness Sun altitude
Rises 05:00:11 0° 206° (SSW) 3,213 6.9 -12.2°
Reaches altitude 10° 05:02:33 10° 209° (SSW) 2,292 6.2 -11.8°
Maximum altitude 05:07:45 73° 294° (WNW) 801 3.9 -10.9°
Drops below altitude 10° 05:12:59 10° 19° (NNE) 2,305 6.8 -10.1°
Sets 05:15:23 0° 22° (NNE) 3,232 7.6 -9.7°
